Hourly Data Report for December 07, 2016

All times are specified in Local Standard Time (LST). Add 1 hour to adjust for Daylight Saving Time where and when it is observed.

WEKWEETI A
NORTHWEST TERRITORIES

64°11'27.000" N
114°04'36.000" W
368.20 m
2203980
YWE

Related Data

No related data is available for this station

Download Data

Hourly Data (December 2016)
Hourly Data Report for December 7, 2016
Temp Definition
°C
Dew Point Temp Definition
°C
Rel Hum Definition
%
Wind Dir Definition
10's deg

Wind Spd Definition
km/h
Visibility Definition
km
Stn Press Definition
kPa
Hmdx Definition


Wind Chill Definition


Weather Definition


TIME
00:00 Legend Double Dagger -27.9 -31.2 74 4 11 11.3 99.89   -37 Snow
01:00 Legend Double Dagger -28.1 -31.4 74 5 11 8.1 99.93   -37 Snow
02:00 Legend Double Dagger -28.9 -32.2 74 4 13 16.1 99.98   -39 LegendNANA
03:00 Legend Double Dagger -28.9 -32.3 73 4 13 16.1 100.01   -39 LegendNANA
04:00 Legend Double Dagger -29.0 -32.4 73 6 11 12.9 100.04   -38 Snow
05:00 Legend Double Dagger -29.3 -32.7 73 5 13 16.1 100.08   -40 LegendNANA
06:00 Legend Double Dagger -29.4 -32.7 74 6 11 16.1 100.09   -39 LegendNANA
07:00 Legend Double Dagger -29.4 -32.5 75 6 11 16.1 100.14   -39 LegendNANA
08:00 Legend Double Dagger -29.1 -32.2 75 7 9 9.7 100.17   -38 Snow
09:00 Legend Double Dagger -29.1 -32.2 75 5 11 16.1 100.17   -39 LegendNANA
10:00 Legend Double Dagger -29.8 -32.8 76 5 8 16.1 100.21   -38 LegendNANA
11:00 Legend Double Dagger -29.6 -32.6 76 5 9 16.1 100.26   -38 LegendNANA
12:00 Legend Double Dagger -29.1 -32.2 75 7 5 12.9 100.29   -35 Snow
13:00 Legend Double Dagger -27.3 -30.0 78 5 11 4.8 100.30   -36 Snow
14:00 Legend Double Dagger -27.1 -30.0 77 5 5 8.1 100.32   -32 Snow
15:00 Legend Double Dagger -27.3 -30.0 78 3 5 4.8 100.36   -33 Snow
16:00 Legend Double Dagger -27.7 -30.6 77 6 11 16.1 100.37   -37 Snow
17:00 Legend Double Dagger -28.3 -31.2 77 6 8 16.1 100.38   -36 Snow
18:00 Legend Double Dagger -28.6 -31.5 77 6 9 16.1 100.38   -37 Snow
19:00 Legend Double Dagger -28.7 -31.6 77 6 11 16.1 100.38   -38 Snow
20:00 Legend Double Dagger -28.3 -31.3 76 6 11 16.1 100.38   -38 Snow
21:00 Legend Double Dagger -27.9 -30.9 76 8 4 16.1 100.38   -32 Snow
22:00 Legend Double Dagger -27.9 -30.6 78 5 4 6.4 100.36   -32 Snow
23:00 Legend Double Dagger -27.6 -30.3 78 6 11 16.1 100.34   -37 Snow

Notes on Data Quality.

Legend

  • E = Estimated
  • M = Missing
  • NA = Not Available
  • ‡ = Partner data that is not subject to review by the National Climate Archives
Date modified: